| time (UTC) | temp F | wind direction | speed MPH | gust MPH | rain 1hr in | rain 24hr in | rain mn in | humidity % | barometer mb |
| 20260905022036 | 80 | 113 | 2.0 | 4.0 | 0.00 | 0.00 | 0.00 | 71 | |
| 20260905021016 | 80 | 113 | 2.0 | 3.0 | 0.00 | 0.00 | 0.00 | 71 | |
| 20260905020016 | 80 | 113 | 1.0 | 4.0 | 0.00 | 0.00 | 0.00 | 70 | |
| 20260905015016 | 81 | 113 | 1.0 | 3.0 | 0.00 | 0.00 | 0.00 | 70 | |
| 20260905014016 | 81 | 0.0 | 1.0 | 0.00 | 0.00 | 0.00 | 69 | ||
| 20260905013015 | 82 | 0.0 | 2.0 | 0.00 | 0.00 | 0.00 | 69 | ||
| 20260905012016 | 82 | 0.0 | 1.0 | 0.00 | 0.00 | 0.00 | 68 | ||
| 20260905011036 | 83 | 0.0 | 0.0 | 0.00 | 0.00 | 0.00 | 67 | ||
| 20260905010037 | 83 | 113 | 1.0 | 2.0 | 0.00 | 0.00 | 0.00 | 67 | |
| 20260905005016 | 84 | 113 | 1.0 | 3.0 | 0.00 | 0.00 | 0.00 | 66 | |
| 20260905004015 | 84 | 113 | 1.0 | 3.0 | 0.00 | 0.00 | 0.00 | 65 | |
| 20260905003036 | 85 | 113 | 1.0 | 3.0 | 0.00 | 0.00 | 0.00 | 64 | |
| 20260905002056 | 85 | 113 | 1.0 | 2.0 | 0.00 | 0.00 | 0.00 | 63 | |
| 20260905001016 | 86 | 113 | 1.0 | 2.0 | 0.00 | 0.00 | 0.00 | 62 | |
| 20260905000017 | 86 | 113 | 1.0 | 4.0 | 0.00 | 0.00 | 0.00 | 62 | |
| 20260904235037 | 87 | 113 | 2.0 | 3.0 | 0.00 | 0.00 | 0.00 | 61 | |
| 20260904234017 | 87 | 113 | 1.0 | 3.0 | 0.00 | 0.00 | 0.00 | 61 | |
| 20260904233017 | 88 | 135 | 2.0 | 5.0 | 0.00 | 0.00 | 0.00 | 61 | |
| 20260904232018 | 89 | 135 | 1.0 | 3.0 | 0.00 | 0.00 | 0.00 | 60 | |
| 20260904231058 | 90 | 45 | 2.0 | 4.0 | 0.00 | 0.00 | 0.00 | 59 | |
| 20260904230017 | 90 | 135 | 2.0 | 5.0 | 0.00 | 0.00 | 0.00 | 58 | |
| 20260904225018 | 91 | 45 | 2.0 | 4.0 | 0.00 | 0.00 | 0.00 | 59 | |
| 20260904224038 | 90 | 113 | 2.0 | 4.0 | 0.00 | 0.00 | 0.00 | 58 | |
| 20260904223017 | 91 | 68 | 1.0 | 3.0 | 0.00 | 0.00 | 0.00 | 59 | |
| 20260904222018 | 90 | 45 | 1.0 | 3.0 | 0.00 | 0.00 | 0.00 | 59 | |
| 20260904221017 | 90 | 90 | 1.0 | 3.0 | 0.00 | 0.00 | 0.00 | 60 | |
| 20260904220017 | 90 | 113 | 3.0 | 6.0 | 0.00 | 0.00 | 0.00 | 59 | |
| 20260904215038 | 90 | 113 | 2.0 | 6.0 | 0.00 | 0.00 | 0.00 | 60 | |
| 20260904214017 | 90 | 68 | 3.0 | 5.0 | 0.00 | 0.00 | 0.00 | 60 | |
| 20260904213018 | 90 | 90 | 3.0 | 7.0 | 0.00 | 0.00 | 0.00 | 60 | |
| 20260904212017 | 90 | 68 | 2.0 | 4.0 | 0.00 | 0.00 | 0.00 | 62 | |
| 20260904211017 | 89 | 45 | 2.0 | 8.0 | 0.00 | 0.00 | 0.00 | 62 | |
| 20260904210017 | 89 | 135 | 2.0 | 4.0 | 0.00 | 0.00 | 0.00 | 62 | |
| 20260904205017 | 89 | 68 | 2.0 | 6.0 | 0.00 | 0.00 | 0.00 | 63 | |
| 20260904204017 | 89 | 90 | 2.0 | 4.0 | 0.00 | 0.00 | 0.00 | 63 | |
| 20260904203017 | 89 | 68 | 2.0 | 4.0 | 0.00 | 0.00 | 0.00 | 63 | |
| 20260904202017 | 88 | 90 | 2.0 | 4.0 | 0.00 | 0.00 | 0.00 | 64 | |
| 20260904201016 | 87 | 68 | 3.0 | 7.0 | 0.00 | 0.00 | 0.00 | 66 | |
| 20260904200016 | 87 | 90 | 3.0 | 7.0 | 0.00 | 0.00 | 0.00 | 67 | |
| 20260904195017 | 86 | 90 | 3.0 | 6.0 | 0.00 | 0.00 | 0.00 | 68 | |
| 20260904194016 | 86 | 135 | 3.0 | 5.0 | 0.00 | 0.00 | 0.00 | 69 | |
| 20260904193017 | 85 | 113 | 2.0 | 6.0 | 0.00 | 0.00 | 0.00 | 71 | |
| 20260904192016 | 85 | 113 | 2.0 | 5.0 | 0.00 | 0.00 | 0.00 | 71 | |
| 20260904191037 | 85 | 113 | 3.0 | 6.0 | 0.00 | 0.00 | 0.00 | 71 | |
| 20260904190016 | 85 | 113 | 2.0 | 4.0 | 0.00 | 0.04 | 0.00 | 72 | |
| 20260904185017 | 85 | 113 | 4.0 | 8.0 | 0.00 | 0.04 | 0.00 | 72 | |
| 20260904184037 | 84 | 113 | 3.0 | 8.0 | 0.00 | 0.04 | 0.00 | 73 | |
| 20260904183016 | 84 | 90 | 4.0 | 9.0 | 0.00 | 0.04 | 0.00 | 72 | |
| 20260904182016 | 85 | 135 | 3.0 | 7.0 | 0.00 | 0.04 | 0.00 | 72 | |
| 20260904181016 | 85 | 90 | 4.0 | 7.0 | 0.00 | 0.04 | 0.00 | 71 | |
| 20260904180016 | 85 | 135 | 3.0 | 6.0 | 0.00 | 0.05 | 0.00 | 72 | |
| 20260904175017 | 85 | 90 | 3.0 | 9.0 | 0.00 | 0.05 | 0.00 | 73 | |
| 20260904174016 | 85 | 113 | 3.0 | 7.0 | 0.00 | 0.05 | 0.00 | 74 | |
| 20260904173016 | 85 | 113 | 4.0 | 7.0 | 0.00 | 0.05 | 0.00 | 73 | |
| 20260904172016 | 85 | 113 | 3.0 | 7.0 | 0.00 | 0.05 | 0.00 | 74 | |
| 20260904171015 | 85 | 113 | 4.0 | 8.0 | 0.00 | 0.05 | 0.00 | 73 | |
| 20260904170057 | 86 | 135 | 4.0 | 7.0 | 0.00 | 0.05 | 0.00 | 72 | |
| 20260904165015 | 87 | 90 | 4.0 | 10.0 | 0.00 | 0.05 | 0.00 | 71 | |
| 20260904164056 | 88 | 90 | 4.0 | 7.0 | 0.00 | 0.05 | 0.00 | 70 | |
| 20260904163016 | 88 | 90 | 3.0 | 7.0 | 0.00 | 0.05 | 0.00 | 70 | |
| 20260904162016 | 88 | 90 | 2.0 | 5.0 | 0.00 | 0.05 | 0.00 | 71 | |
| 20260904161016 | 87 | 135 | 3.0 | 6.0 | 0.00 | 0.05 | 0.00 | 70 | |
| 20260904160016 | 87 | 68 | 2.0 | 4.0 | 0.00 | 0.05 | 0.00 | 72 | |
| 20260904155017 | 86 | 23 | 1.0 | 4.0 | 0.00 | 0.05 | 0.00 | 73 | |
| 20260904154018 | 85 | 158 | 1.0 | 3.0 | 0.00 | 0.05 | 0.00 | 75 | |
| 20260904153017 | 85 | 68 | 2.0 | 5.0 | 0.00 | 0.05 | 0.00 | 75 | |
| 20260904152017 | 84 | 68 | 1.0 | 3.0 | 0.00 | 0.05 | 0.00 | 77 | |
| 20260904151018 | 83 | 0.0 | 3.0 | 0.00 | 0.05 | 0.00 | 80 | ||
| 20260904150017 | 81 | 68 | 1.0 | 3.0 | 0.00 | 0.05 | 0.00 | 83 | |
| 20260904145017 | 80 | 68 | 1.0 | 2.0 | 0.00 | 0.05 | 0.00 | 87 | |
| 20260904144018 | 79 | 68 | 1.0 | 3.0 | 0.00 | 0.05 | 0.00 | 90 | |
| 20260904143017 | 78 | 113 | 1.0 | 3.0 | 0.00 | 0.05 | 0.00 | 92 | |
| 20260904142017 | 77 | 68 | 2.0 | 4.0 | 0.00 | 0.05 | 0.00 | 94 | |
| 20260904141017 | 76 | 68 | 1.0 | 2.0 | 0.00 | 0.05 | 0.00 | 94 | |
| 20260904140017 | 75 | 0.0 | 1.0 | 0.00 | 0.05 | 0.00 | 94 | ||
| 20260904135017 | 75 | 0.0 | 0.0 | 0.00 | 0.05 | 0.00 | 93 | ||
| 20260904134038 | 75 | 0.0 | 2.0 | 0.00 | 0.05 | 0.00 | 93 | ||
| 20260904133038 | 74 | 0.0 | 0.0 | 0.00 | 0.05 | 0.00 | 93 | ||
| 20260904132016 | 74 | 0.0 | 0.0 | 0.00 | 0.05 | 0.00 | 93 | ||
| 20260904131017 | 74 | 0.0 | 0.0 | 0.00 | 0.05 | 0.00 | 93 | ||
| 20260904130017 | 73 | 0.0 | 0.0 | 0.00 | 0.05 | 0.00 | 93 | ||
| 20260904125017 | 73 | 0.0 | 0.0 | 0.00 | 0.05 | 0.00 | 93 | ||
| 20260904124016 | 73 | 0.0 | 0.0 | 0.00 | 0.05 | 0.00 | 92 | ||
| 20260904123016 | 73 | 0.0 | 0.0 | 0.00 | 0.05 | 0.00 | 92 | ||
| 20260904122017 | 73 | 0.0 | 0.0 | 0.00 | 0.05 | 0.00 | 91 | ||
| 20260904121016 | 73 | 0.0 | 0.0 | 0.00 | 0.05 | 0.00 | 91 | ||
| 20260904120036 | 73 | 0.0 | 1.0 | 0.00 | 0.05 | 0.00 | 91 | ||
| 20260904115037 | 73 | 0.0 | 0.0 | 0.00 | 0.05 | 0.00 | 91 | ||
| 20260904114039 | 73 | 0.0 | 0.0 | 0.00 | 0.05 | 0.00 | 91 | ||
| 20260904113016 | 73 | 0.0 | 0.0 | 0.00 | 0.05 | 0.00 | 91 | ||
| 20260904112036 | 73 | 0.0 | 0.0 | 0.00 | 0.05 | 0.00 | 91 | ||
| 20260904111017 | 73 | 0.0 | 0.0 | 0.00 | 0.05 | 0.00 | 91 | ||
| 20260904110016 | 74 | 0.0 | 0.0 | 0.00 | 0.05 | 0.00 | 91 | ||
| 20260904105017 | 74 | 0.0 | 0.0 | 0.00 | 0.05 | 0.00 | 90 | ||
| 20260904104016 | 74 | 0.0 | 0.0 | 0.00 | 0.05 | 0.00 | 90 | ||
| 20260904103016 | 74 | 0.0 | 0.0 | 0.00 | 0.05 | 0.00 | 89 | ||
| 20260904102016 | 74 | 0.0 | 0.0 | 0.00 | 0.05 | 0.00 | 89 | ||
| 20260904101017 | 74 | 0.0 | 0.0 | 0.00 | 0.05 | 0.00 | 89 | ||
| 20260904100016 | 74 | 0.0 | 0.0 | 0.00 | 0.05 | 0.00 | 89 | ||
| 20260904095015 | 74 | 0.0 | 0.0 | 0.00 | 0.05 | 0.00 | 89 | ||
| 20260904094016 | 75 | 0.0 | 0.0 | 0.00 | 0.05 | 0.00 | 89 | ||
| 20260904093016 | 75 | 0.0 | 0.0 | 0.00 | 0.05 | 0.00 | 89 | ||
| 20260904092016 | 75 | 0.0 | 0.0 | 0.00 | 0.05 | 0.00 | 89 | ||
| 20260904091015 | 75 | 0.0 | 0.0 | 0.00 | 0.05 | 0.00 | 89 | ||
| 20260904090016 | 75 | 0.0 | 0.0 | 0.00 | 0.05 | 0.00 | 89 | ||
| 20260904085016 | 75 | 0.0 | 0.0 | 0.00 | 0.05 | 0.00 | 88 | ||
| 20260904084016 | 76 | 0.0 | 1.0 | 0.00 | 0.05 | 0.00 | 88 | ||
| 20260904083016 | 76 | 0.0 | 0.0 | 0.00 | 0.05 | 0.00 | 88 | ||
| 20260904082036 | 76 | 0.0 | 1.0 | 0.00 | 0.05 | 0.00 | 88 | ||
| 20260904081015 | 76 | 0.0 | 1.0 | 0.00 | 0.05 | 0.00 | 88 | ||
| 20260904080016 | 76 | 0.0 | 1.0 | 0.00 | 0.05 | 0.00 | 88 | ||
| 20260904075017 | 77 | 0.0 | 0.0 | 0.00 | 0.05 | 0.00 | 88 | ||
| 20260904074038 | 77 | 0.0 | 2.0 | 0.00 | 0.05 | 0.00 | 88 | ||
| 20260904073018 | 77 | 0.0 | 0.0 | 0.00 | 0.05 | 0.00 | 88 | ||
| 20260904072016 | 77 | 0.0 | 0.0 | 0.00 | 0.05 | 0.00 | 88 | ||
| 20260904071016 | 77 | 0.0 | 1.0 | 0.00 | 0.05 | 0.00 | 88 | ||
| 20260904070016 | 77 | 293 | 1.0 | 3.0 | 0.00 | 0.05 | 0.00 | 87 | |
| 20260904065037 | 77 | 0.0 | 0.0 | 0.00 | 0.05 | 0.00 | 86 | ||
| 20260904064016 | 77 | 0.0 | 0.0 | 0.00 | 0.05 | 0.00 | 86 | ||
| 20260904063016 | 77 | 0.0 | 0.0 | 0.00 | 0.05 | 0.00 | 85 | ||
| 20260904062037 | 77 | 0.0 | 0.0 | 0.00 | 0.05 | 0.00 | 85 | ||
| 20260904061016 | 77 | 0.0 | 0.0 | 0.00 | 0.05 | 0.00 | 85 | ||
| 20260904060016 | 78 | 0.0 | 0.0 | 0.00 | 0.05 | 0.00 | 85 | ||
| 20260904055016 | 78 | 0.0 | 0.0 | 0.00 | 0.05 | 0.00 | 84 | ||
| 20260904054036 | 78 | 0.0 | 0.0 | 0.00 | 0.05 | 0.00 | 84 | ||
| 20260904053016 | 78 | 0.0 | 0.0 | 0.00 | 0.05 | 0.00 | 84 | ||
| 20260904052015 | 78 | 0.0 | 0.0 | 0.00 | 0.05 | 0.00 | 84 | ||
| 20260904051016 | 78 | 0.0 | 0.0 | 0.00 | 0.05 | 0.00 | 84 | ||
| 20260904050016 | 78 | 0.0 | 0.0 | 0.00 | 0.05 | 0.05 | 83 | ||
| 20260904045017 | 79 | 0.0 | 0.0 | 0.00 | 0.05 | 0.05 | 83 | ||
| 20260904044018 | 79 | 0.0 | 0.0 | 0.00 | 0.05 | 0.05 | 82 | ||
| 20260904043017 | 79 | 0.0 | 0.0 | 0.00 | 0.05 | 0.05 | 82 | ||
| 20260904042017 | 79 | 0.0 | 0.0 | 0.00 | 0.05 | 0.05 | 82 | ||
| 20260904041038 | 79 | 0.0 | 0.0 | 0.00 | 0.05 | 0.05 | 81 | ||
| 20260904040038 | 80 | 0.0 | 0.0 | 0.00 | 0.05 | 0.05 | 81 | ||
| 20260904035017 | 80 | 0.0 | 0.0 | 0.00 | 0.05 | 0.05 | 80 | ||
| 20260904034038 | 80 | 0.0 | 1.0 | 0.00 | 0.05 | 0.05 | 79 | ||
| 20260904033017 | 80 | 0.0 | 1.0 | 0.00 | 0.05 | 0.05 | 79 | ||
| 20260904032037 | 81 | 0.0 | 0.0 | 0.00 | 0.05 | 0.05 | 78 | ||
| 20260904031017 | 81 | 0.0 | 0.0 | 0.00 | 0.05 | 0.05 | 78 | ||
| 20260904030117 | 81 | 0.0 | 0.0 | 0.00 | 0.05 | 0.05 | 78 | ||
| 20260904025037 | 81 | 0.0 | 1.0 | 0.00 | 0.05 | 0.05 | 77 | ||
| 20260904024016 | 81 | 0.0 | 1.0 | 0.00 | 0.05 | 0.05 | 77 | ||
| 20260904023017 | 81 | 0.0 | 2.0 | 0.00 | 0.05 | 0.05 | 76 |